This demonstration page uses our WeatherBlox Daily Observations layout. Learn more.

Left ArrowRight Arrow

Hourly Observations for February 22, 2020

Temp ( °F °C ) Dew Point ( °F °C ) Humidity (%) Winds ( mph kmh ) Pressure ( in mb ) Visibility ( mi km ) Precip ( " mm )
12:56 am 00:56 Clear 29 -1.7 27 -2.8 92 92 SW 9 15 30.16 1022 10 16 0.00 0.00
1:56 am 01:56 Clear 29 -1.7 27 -2.8 92 92 SW 6 9 30.14 1021 9 14 0.00 0.00
2:56 am 02:56 Clear 27 -2.8 26 -3.3 96 96 WSW 7 11 30.12 1020 9 14 0.00 0.00
3:56 am 03:56 Clear 27 -2.8 25 -3.9 92 92 SW 7 11 30.10 1019 8 13 0.00 0.00
4:56 am 04:56 Clear 26 -3.3 25 -3.9 96 96 SW 8 13 30.09 1019 9 14 0.00 0.00
5:56 am 05:56 Clear 25 -3.9 24 -4.4 96 96 SW 9 15 30.10 1019 10 16 0.00 0.00
6:56 am 06:56 Clear 24 -4.4 23 -5 96 96 SW 3 6 30.10 1019 10 16 0.00 0.00
7:56 am 07:56 Sunny 22 -5.6 21 -6.1 96 96 SSW 7 11 30.09 1019 9 14 0.00 0.00
8:56 am 08:56 Sunny 27 -2.8 26 -3.3 96 96 SW 9 15 30.11 1020 10 16 0.00 0.00
9:56 am 09:56 Sunny 34 1.1 30 -1.1 85 85 SSW 10 17 30.09 1019 10 16 0.00 0.00
10:56 am 10:56 Sunny 40 4.4 30 -1.1 68 68 SW 12 19 30.09 1019 10 16 0.00 0.00
11:56 am 11:56 Sunny 46 7.8 29 -1.7 51 51 SSW 13 20 30.04 1017 10 16 0.00 0.00
12:56 pm 12:56 Sunny 51 10.6 28 -2.2 41 41 WSW 8 13 30.02 1017 10 16 0.00 0.00
1:56 pm 13:56 Sunny 60 15.6 27 -2.8 28 28 SW 10 17 29.96 1015 10 16 0.00 0.00
2:56 pm 14:56 Sunny 63 17.2 25 -3.9 24 24 SW 9 15 29.95 1014 10 16 0.00 0.00
3:56 pm 15:56 Sunny 65 18.3 25 -3.9 22 22 WNW 13 20 29.93 1014 10 16 0.00 0.00
4:16 pm 16:16 Sunny 64 18 18 -8 16 16 WNW 13 20 29.86 1011 10 16 0.00 0.00
4:56 pm 16:56 Sunny 62 16.7 22 -5.6 21 21 NW 14 22 29.95 1014 10 16 0.00 0.00
5:56 pm 17:56 Sunny 54 12.2 22 -5.6 29 29 NNW 7 11 29.98 1015 10 16 0.00 0.00
6:56 pm 18:56 Clear 45 7.2 20 -6.7 37 37 NW 6 9 30.00 1016 10 16 0.00 0.00
7:56 pm 19:56 Clear 40 4.4 20 -6.7 45 45 Calm 30.01 1016 10 16 0.00 0.00
8:56 pm 20:56 Clear 39 3.9 21 -6.1 48 48 WSW 7 11 30.02 1017 10 16 0.00 0.00
9:56 pm 21:56 Clear 35 1.7 21 -6.1 57 57 Calm 30.02 1017 10 16 0.00 0.00
10:56 pm 22:56 Clear 31 -0.6 22 -5.6 69 69 NW 3 6 30.00 1016 10 16 0.00 0.00
11:56 pm 23:56 Clear 30 -1.1 21 -6.1 69 69 SW 6 9 29.98 1015 10 16 0.00 0.00

Powered by AerisWeather